Regional Weather Roundup
Issued by NWS Green Bay, WI

Home | Current Version | Previous Version | Graphics & Text | Print | Product List | Glossary Off
Versions: 1 2 3 4 5 6 7 8 9 10 11 12 13 14 15 16 17 18 19 20 21 22 23 24 25 26 27 28 29 30 31 32 33 34 35 36 37 38 39 40 41 42 43 44 45 46 47 48 49 50

000
ASUS43 KGRB 241600
RWRGRB

NORTH-CENTRAL AND NORTHEAST WISCONSIN REGIONAL WEATHER ROUNDUP
NATIONAL WEATHER SERVICE GREEN BAY WI
1000 AM CST FRI NOV 24 2017

WIZ005-009-010>012-018-019-241700-
NORTH CENTRAL WISCONSIN

CITY           SKY/WX    TMP DP  RH WIND       PRES   REMARKS
IRONWOOD       CLOUDY    46  35  65 SW13      29.26S
MANITOWISH WTR NOT AVBL
ARBOR VITAE    NOT AVBL
EAGLE RIVER    MOSUNNY   46  33  61 SW6       29.30F
LAND O LAKES   NOT AVBL
RHINELANDER    CLOUDY    47  36  65 SW14      29.33F
PHILLIPS       CLOUDY    47  37  67 SW9       29.32R
ANTIGO         NOT AVBL
TOMAHAWK       NOT AVBL
MERRILL        MOSUNNY   46  35  63 S10G16    29.38F
$$

WIZ013-073-241700-
NORTHEAST WISCONSIN

CITY           SKY/WX    TMP DP  RH WIND       PRES   REMARKS
IRON MOUNTAIN  MOSUNNY   47  32  56 S7        29.31F
MARINETTE      MOSUNNY   48  34  58 SW13G18   29.41F
$$

WIZ017-030-035>037-045-241700-
CENTRAL WISCONSIN

CITY           SKY/WX    TMP DP  RH WIND       PRES   REMARKS
MEDFORD        NOT AVBL
WAUSAU         MOSUNNY   49  35  58 S12       29.37F
MOSINEE        PTSUNNY   48  36  61 S10G16    29.41F
MARSHFIELD     SUNNY     52  35  52 S17       29.37F
WISC RAPIDS    CLOUDY    52  35  52 SW16      29.43F
STEVENS POINT  NOT AVBL
WAUPACA        NOT AVBL
SHAWANO        CLOUDY    51  34  52 S5        29.42F
CLINTONVILLE   NOT AVBL
WAUTOMA        MOSUNNY   53  35  50 S10       29.45F
$$

WIZ038-039-048-051-241700-
FOX VALLEY

CITY           SKY/WX    TMP DP  RH WIND       PRES   REMARKS
NWS GREEN BAY  CLOUDY    47  35  63 S14       29.46F
APPLETON       PTSUNNY   48  30  49 SW16G22   29.46F
OSHKOSH        PTSUNNY   50  35  56 SW18G28   29.46F
FOND DU LAC    CLOUDY    52  33  48 S21G31    29.49F
$$

WIZ022-050-052-241700-
EAST CENTRAL WISCONSIN

CITY           SKY/WX    TMP DP  RH WIND       PRES   REMARKS
EPHRAIM        NOT AVBL
WASHINGTON ISL NOT AVBL
STURGEON BAY   MOSUNNY   54  36  50 SW23      29.42F
MANITOWOC      NOT AVBL
SHEBOYGAN      CLOUDY    57  36  45 SW20G31   29.51F
$$

LMZ563-521-522-541>543-241700-
LAKESHORE

STATION/POSITION TIME  TEMP    WIND        PRES    VSBY  WAVE
                       AIR SEA DIR/SP/G                  HT/PER
                 (UTC) (F)     (DEG/KT/KT) (MB)    (MI)  (FT/S)
SHEBOYGAN LKSHOR 1500   43     180/ 22/ 23 1000.6F
KEWAUNEE LKSHORE 1530   42     180/ 13/ 14  997.6F
N MID LAKE BUOY  1450   47 47  200/ 27/ 33  997.3F         9/ 7
SISTER BAY LKSHO 1520   46     150/ 10/ 11   N/A
MENOMINEE LKSHOR 1530   45     190/ 13/ 18  996.3F
$$




USA.gov is the U.S. government's official web portal to all federal, state and local government web resources and services.